QPF
0.00 0.00 0.00 0.00 0.00 0.00 0.00 0.00 0.00 0.00 0.00 0.00 0.00 0.00 0.00 0.00 0.01 0.01 0.01 0.01 0.01 0.01 0.01 0.02 0.05 0.10 0.12 0.14 0.14 0.13 0.14 0.15 0.13 0.09 0.07 0.09 0.09 0.08 0.08 0.08 0.08 0.06 0.06 0.06
0.00 0.00 0.00 0.00 0.00 0.00 0.00 0.00 0.00 0.00 0.00 0.00 0.00 0.00 0.00 0.00 0.00 0.01 0.01 0.01 0.02 0.01 0.02 0.03 0.05 0.07 0.07 0.08 0.09 0.12 0.13 0.14 0.12 0.12 0.11 0.11 0.10 0.09 0.10 0.10 0.09 0.06 0.06 0.06
0.00 0.00 0.00 0.00 0.00 0.00 0.00 0.00 0.00 0.00 0.00 0.00 0.00 0.00 0.00 0.00 0.01 0.01 0.01 0.02 0.02 0.02 0.03 0.05 0.05 0.07 0.07 0.10 0.11 0.10 0.12 0.14 0.13 0.14 0.14 0.11 0.10 0.10 0.08 0.08 0.09 0.08 0.07 0.06
0.00 0.00 0.00 0.00 0.00 0.00 0.00 0.00 0.00 0.00 0.00 0.00 0.00 0.00 0.00 0.00 0.01 0.01 0.02 0.02 0.03 0.03 0.03 0.05 0.05 0.06 0.06 0.09 0.11 0.11 0.11 0.13 0.13 0.12 0.13 0.09 0.06 0.04 0.04 0.07 0.09 0.09 0.08 0.07
0.00 0.00 0.00 0.00 0.00 0.00 0.00 0.00 0.00 0.00 0.00 0.00 0.00 0.00 0.00 0.00 0.00 0.01 0.01 0.02 0.03 0.04 0.04 0.04 0.06 0.06 0.05 0.08 0.11 0.13 0.12 0.12 0.11 0.10 0.10 0.11 0.09 0.07 0.07 0.09 0.11 0.10 0.10 0.08
0.00 0.00 0.00 0.00 0.00 0.00 0.00 0.00 0.00 0.00 0.00 0.00 0.00 0.00 0.00 0.00 0.00 0.01 0.01 0.02 0.03 0.04 0.04 0.05 0.06 0.06 0.06 0.07 0.09 0.09 0.08 0.09 0.10 0.10 0.10 0.09 0.08 0.07 0.05 0.05 0.08 0.09 0.11 0.10
0.00 0.00 0.00 0.00 0.00 0.00 0.00 0.00 0.00 0.00 0.00 0.00 0.00 0.00 0.00 0.00 0.00 0.01 0.01 0.02 0.03 0.04 0.04 0.04 0.05 0.07 0.08 0.07 0.06 0.06 0.06 0.08 0.10 0.11 0.10 0.11 0.09 0.07 0.05 0.04 0.05 0.06 0.07 0.08
0.00 0.00 0.00 0.00 0.00 0.00 0.00 0.00 0.00 0.00 0.00 0.00 0.00 0.00 0.00 0.00 0.00 0.01 0.01 0.01 0.02 0.03 0.04 0.05 0.05 0.06 0.07 0.07 0.06 0.06 0.06 0.07 0.09 0.10 0.09 0.10 0.09 0.06 0.05 0.05 0.04 0.03 0.04 0.07
0.00 0.00 0.00 0.00 0.00 0.00 0.00 0.00 0.00 0.00 0.00 0.00 0.00 0.00 0.00 0.00 0.01 0.01 0.01 0.01 0.03 0.04 0.05 0.05 0.05 0.05 0.05 0.05 0.05 0.05 0.05 0.06 0.07 0.07 0.07 0.08 0.08 0.06 0.06 0.06 0.05 0.04 0.05 0.09
0.00 0.00 0.00 0.00 0.00 0.00 0.00 0.00 0.00 0.00 0.00 0.00 0.00 0.00 0.00 0.00 0.01 0.01 0.01 0.02 0.03 0.04 0.05 0.06 0.05 0.04 0.03 0.02 0.03 0.04 0.05 0.06 0.06 0.06 0.05 0.05 0.05 0.04 0.05 0.06 0.06 0.05 0.07 0.08
0.00 0.00 0.00 0.00 0.00 0.00 0.00 0.00 0.00 0.00 0.00 0.00 0.00 0.00 0.00 0.00 0.01 0.01 0.03 0.04 0.03 0.03 0.04 0.05 0.05 0.03 0.04 0.04 0.05 0.06 0.06 0.06 0.06 0.06 0.04 0.03 0.03 0.03 0.03 0.04 0.06 0.07 0.07 0.07
0.00 0.00 0.00 0.00 0.00 0.00 0.00 0.00 0.00 0.00 0.00 0.00 0.00 0.00 0.00 0.00 0.01 0.02 0.03 0.03 0.04 0.04 0.04 0.06 0.07 0.06 0.08 0.07 0.08 0.08 0.08 0.07 0.06 0.06 0.05 0.04 0.03 0.04 0.04 0.05 0.05 0.06 0.06 0.05
0.00 0.00 0.00 0.00 0.00 0.00 0.00 0.00 0.00 0.00 0.00 0.00 0.00 0.00 0.00 0.00 0.01 0.01 0.02 0.02 0.05 0.06 0.07 0.09 0.11 0.09 0.09 0.08 0.10 0.11 0.10 0.08 0.09 0.08 0.06 0.04 0.03 0.03 0.04 0.05 0.05 0.05 0.05 0.06
0.00 0.00 0.00 0.00 0.00 0.00 0.00 0.00 0.00 0.00 0.00 0.00 0.00 0.00 0.00 0.00 0.00 0.00 0.01 0.03 0.04 0.05 0.06 0.08 0.12 0.11 0.08 0.07 0.07 0.06 0.06 0.06 0.06 0.06 0.05 0.03 0.03 0.03 0.03 0.04 0.04 0.04 0.04 0.06
0.00 0.00 0.00 0.00 0.00 0.00 0.00 0.00 0.00 0.00 0.00 0.00 0.00 0.00 0.00 0.00 0.00 0.01 0.02 0.05 0.08 0.08 0.07 0.05 0.05 0.07 0.06 0.06 0.05 0.05 0.05 0.04 0.05 0.05 0.03 0.03 0.03 0.04 0.04 0.03 0.04 0.04 0.04 0.04
0.00 0.00 0.00 0.00 0.00 0.00 0.00 0.00 0.00 0.00 0.00 0.00 0.00 0.00 0.00 0.00 0.01 0.01 0.02 0.03 0.07 0.08 0.06 0.04 0.04 0.04 0.05 0.05 0.05 0.05 0.04 0.04 0.04 0.02 0.02 0.02 0.02 0.03 0.04 0.04 0.04 0.04 0.05 0.06
0.00 0.00 0.00 0.00 0.00 0.00 0.00 0.00 0.00 0.00 0.00 0.00 0.00 0.00 0.00 0.00 0.01 0.01 0.01 0.01 0.03 0.05 0.04 0.04 0.03 0.04 0.05 0.03 0.02 0.03 0.03 0.03 0.03 0.03 0.03 0.03 0.03 0.03 0.03 0.03 0.03 0.04 0.04 0.04
0.00 0.00 0.00 0.00 0.00 0.00 0.00 0.00 0.00 0.00 0.00 0.00 0.00 0.00 0.01 0.01 0.01 0.01 0.01 0.01 0.02 0.02 0.02 0.03 0.03 0.03 0.04 0.03 0.02 0.01 0.02 0.03 0.04 0.04 0.03 0.03 0.03 0.03 0.03 0.03 0.03 0.04 0.04 0.04
0.00 0.00 0.00 0.00 0.00 0.00 0.00 0.00 0.00 0.00 0.00 0.00 0.00 0.00 0.01 0.01 0.01 0.01 0.01 0.02 0.02 0.03 0.03 0.03 0.03 0.03 0.02 0.02 0.02 0.02 0.02 0.03 0.04 0.03 0.01 0.01 0.02 0.01 0.02 0.02 0.03 0.04 0.05 0.05
0.00 0.00 0.00 0.00 0.00 0.00 0.00 0.00 0.00 0.00 0.00 0.00 0.00 0.00 0.01 0.02 0.01 0.01 0.01 0.01 0.02 0.03 0.03 0.03 0.02 0.02 0.02 0.02 0.02 0.02 0.03 0.03 0.04 0.03 0.03 0.02 0.01 0.01 0.01 0.01 0.03 0.05 0.06 0.06
0.00 0.00 0.00 0.00 0.00 0.00 0.00 0.00 0.00 0.00 0.00 0.00 0.00 0.01 0.02 0.02 0.02 0.01 0.02 0.03 0.04 0.04 0.04 0.04 0.03 0.02 0.02 0.02 0.02 0.02 0.02 0.03 0.02 0.02 0.01 0.01 0.00 0.01 0.00 0.01 0.02 0.03 0.07 0.09
0.00 0.00 0.00 0.00 0.00 0.00 0.00 0.00 0.00 0.00 0.00 0.00 0.00 0.02 0.03 0.03 0.03 0.04 0.05 0.06 0.06 0.05 0.05 0.04 0.03 0.02 0.02 0.02 0.01 0.01 0.01 0.02 0.01 0.01 0.01 0.01 0.01 0.00 0.00 0.01 0.01 0.01 0.04 0.08
0.00 0.00 0.00 0.00 0.00 0.00 0.00 0.00 0.00 0.00 0.00 0.01 0.01 0.02 0.03 0.04 0.04 0.06 0.08 0.09 0.09 0.08 0.07 0.06 0.04 0.02 0.02 0.02 0.01 0.01 0.01 0.02 0.02 0.01 0.01 0.01 0.01 0.01 0.01 0.01 0.01 0.01 0.02 0.03
0.01 0.01 0.01 0.01 0.01 0.01 0.01 0.01 0.01 0.01 0.01 0.02 0.02 0.02 0.03 0.05 0.05 0.05 0.08 0.11 0.10 0.09 0.08 0.06 0.03 0.02 0.01 0.01 0.01 0.02 0.01 0.01 0.01 0.00 0.01 0.01 0.01 0.01 0.01 0.01 0.01 0.01 0.02 0.02
0.01 0.01 0.02 0.02 0.01 0.02 0.02 0.02 0.03 0.03 0.03 0.04 0.03 0.04 0.05 0.04 0.05 0.05 0.04 0.05 0.05 0.05 0.05 0.03 0.02 0.02 0.01 0.01 0.01 0.01 0.01 0.01 0.01 0.01 0.01 0.02 0.03 0.03 0.03 0.02 0.03 0.03 0.03 0.03
0.01 0.02 0.02 0.03 0.03 0.04 0.05 0.06 0.05 0.05 0.05 0.05 0.05 0.05 0.06 0.05 0.03 0.03 0.02 0.02 0.03 0.03 0.03 0.03 0.02 0.02 0.01 0.02 0.02 0.02 0.02 0.02 0.03 0.03 0.03 0.03 0.03 0.02 0.01 0.01 0.02 0.03 0.03 0.03
MSLP
1012.71 1013.58 1014.27 1014.74 1015.00 1015.08 1015.00 1014.79 1014.48 1014.08 1013.61 1013.08 1012.52 1011.96 1011.45 1011.03 1010.75 1010.61 1010.63 1010.78 1011.01 1011.28 1011.54 1011.75 1011.90 1012.01 1012.11 1012.24 1012.46 1012.79 1013.25 1013.79 1014.39 1014.99 1015.52 1015.95 1016.26 1016.44 1016.53 1016.57 1016.62 1016.72 1016.90 1017.17
1013.18 1013.87 1014.38 1014.69 1014.86 1014.91 1014.89 1014.81 1014.67 1014.46 1014.16 1013.77 1013.27 1012.72 1012.15 1011.62 1011.21 1010.95 1010.86 1010.92 1011.11 1011.35 1011.60 1011.79 1011.91 1011.98 1012.02 1012.08 1012.23 1012.51 1012.93 1013.46 1014.08 1014.71 1015.28 1015.75 1016.06 1016.24 1016.29 1016.29 1016.28 1016.33 1016.48 1016.75
1013.41 1013.90 1014.20 1014.36 1014.45 1014.52 1014.60 1014.70 1014.79 1014.82 1014.73 1014.49 1014.08 1013.52 1012.88 1012.23 1011.66 1011.24 1011.01 1010.98 1011.11 1011.33 1011.58 1011.79 1011.92 1011.97 1011.98 1012.00 1012.09 1012.30 1012.67 1013.18 1013.78 1014.42 1015.00 1015.48 1015.81 1015.98 1016.02 1015.98 1015.94 1015.96 1016.09 1016.35
1013.44 1013.70 1013.82 1013.86 1013.91 1014.04 1014.27 1014.60 1014.95 1015.25 1015.39 1015.31 1014.97 1014.39 1013.64 1012.83 1012.07 1011.46 1011.07 1010.93 1010.99 1011.20 1011.47 1011.72 1011.89 1011.97 1011.99 1011.98 1012.03 1012.18 1012.49 1012.94 1013.50 1014.10 1014.68 1015.16 1015.49 1015.67 1015.70 1015.66 1015.61 1015.61 1015.73 1015.98
1013.31 1013.39 1013.35 1013.31 1013.38 1013.61 1014.05 1014.63 1015.27 1015.83 1016.19 1016.25 1015.96 1015.33 1014.44 1013.43 1012.45 1011.63 1011.06 1010.78 1010.78 1010.98 1011.29 1011.61 1011.85 1012.00 1012.04 1012.04 1012.05 1012.14 1012.37 1012.74 1013.23 1013.78 1014.32 1014.78 1015.12 1015.30 1015.35 1015.32 1015.27 1015.28 1015.39 1015.64
1013.11 1013.03 1012.90 1012.84 1012.97 1013.36 1014.01 1014.86 1015.77 1016.58 1017.13 1017.29 1017.01 1016.29 1015.25 1014.03 1012.81 1011.76 1011.00 1010.59 1010.52 1010.72 1011.08 1011.48 1011.83 1012.05 1012.16 1012.17 1012.15 1012.18 1012.32 1012.59 1012.98 1013.45 1013.93 1014.36 1014.69 1014.88 1014.96 1014.96 1014.93 1014.96 1015.08 1015.32
1012.87 1012.70 1012.53 1012.51 1012.74 1013.30 1014.17 1015.26 1016.41 1017.42 1018.11 1018.34 1018.03 1017.22 1016.01 1014.58 1013.13 1011.87 1010.94 1010.42 1010.29 1010.49 1010.91 1011.40 1011.84 1012.16 1012.33 1012.36 1012.32 1012.29 1012.33 1012.49 1012.77 1013.14 1013.55 1013.93 1014.24 1014.45 1014.55 1014.58 1014.59 1014.64 1014.77 1015.02
1012.66 1012.45 1012.29 1012.33 1012.68 1013.40 1014.47 1015.75 1017.08 1018.23 1019.00 1019.24 1018.89 1017.98 1016.63 1015.02 1013.40 1011.98 1010.92 1010.30 1010.14 1010.36 1010.83 1011.40 1011.94 1012.33 1012.55 1012.61 1012.55 1012.45 1012.40 1012.44 1012.60 1012.87 1013.19 1013.52 1013.81 1014.02 1014.15 1014.22 1014.26 1014.34 1014.48 1014.72
1012.49 1012.27 1012.16 1012.28 1012.74 1013.59 1014.78 1016.18 1017.60 1018.81 1019.60 1019.83 1019.44 1018.45 1017.00 1015.29 1013.57 1012.06 1010.93 1010.28 1010.11 1010.35 1010.87 1011.50 1012.10 1012.56 1012.82 1012.89 1012.80 1012.65 1012.51 1012.45 1012.50 1012.66 1012.90 1013.18 1013.44 1013.65 1013.80 1013.89 1013.96 1014.05 1014.20 1014.43
1012.38 1012.19 1012.12 1012.31 1012.85 1013.76 1014.99 1016.41 1017.83 1019.02 1019.78 1019.96 1019.52 1018.50 1017.03 1015.30 1013.58 1012.07 1010.96 1010.33 1010.19 1010.46 1011.01 1011.69 1012.33 1012.82 1013.10 1013.16 1013.05 1012.85 1012.64 1012.50 1012.46 1012.53 1012.71 1012.93 1013.17 1013.37 1013.53 1013.64 1013.72 1013.82 1013.96 1014.17
1012.34 1012.19 1012.17 1012.39 1012.94 1013.83 1015.01 1016.35 1017.66 1018.75 1019.41 1019.54 1019.08 1018.07 1016.65 1015.01 1013.39 1012.00 1010.98 1010.43 1010.35 1010.66 1011.24 1011.93 1012.57 1013.06 1013.33 1013.39 1013.26 1013.03 1012.77 1012.58 1012.48 1012.50 1012.63 1012.82 1013.03 1013.22 1013.38 1013.49 1013.57 1013.66 1013.78 1013.95
1012.39 1012.29 1012.29 1012.50 1013.00 1013.79 1014.82 1015.98 1017.11 1018.02 1018.55 1018.60 1018.13 1017.19 1015.90 1014.43 1013.00 1011.79 1010.94 1010.52 1010.53 1010.88 1011.47 1012.15 1012.77 1013.23 1013.49 1013.52 1013.39 1013.15 1012.88 1012.67 1012.55 1012.55 1012.65 1012.82 1013.01 1013.19 1013.34 1013.44 1013.52 1013.58 1013.67 1013.81
1012.54 1012.47 1012.48 1012.65 1013.04 1013.66 1014.48 1015.39 1016.26 1016.94 1017.30 1017.26 1016.79 1015.95 1014.84 1013.60 1012.43 1011.47 1010.83 1010.57 1010.67 1011.07 1011.65 1012.30 1012.87 1013.29 1013.52 1013.54 1013.41 1013.19 1012.95 1012.76 1012.66 1012.66 1012.76 1012.92 1013.10 1013.27 1013.41 1013.49 1013.55 1013.59 1013.64 1013.74
1012.80 1012.75 1012.75 1012.86 1013.11 1013.53 1014.09 1014.70 1015.27 1015.69 1015.86 1015.72 1015.26 1014.52 1013.60 1012.63 1011.73 1011.03 1010.62 1010.52 1010.73 1011.16 1011.73 1012.32 1012.84 1013.22 1013.41 1013.44 1013.33 1013.15 1012.97 1012.83 1012.77 1012.81 1012.92 1013.08 1013.26 1013.42 1013.54 1013.61 1013.64 1013.66 1013.69 1013.75
1013.15 1013.13 1013.11 1013.15 1013.26 1013.47 1013.75 1014.06 1014.32 1014.46 1014.43 1014.18 1013.71 1013.08 1012.34 1011.61 1010.98 1010.54 1010.33 1010.39 1010.67 1011.13 1011.68 1012.22 1012.68 1013.02 1013.20 1013.24 1013.18 1013.07 1012.96 1012.89 1012.90 1012.97 1013.11 1013.28 1013.45 1013.60 1013.70 1013.75 1013.77 1013.78 1013.79 1013.83
1013.56 1013.57 1013.55 1013.52 1013.51 1013.52 1013.56 1013.58 1013.55 1013.43 1013.20 1012.83 1012.35 1011.78 1011.20 1010.67 1010.26 1010.02 1009.99 1010.17 1010.52 1010.99 1011.51 1012.00 1012.43 1012.74 1012.93 1013.01 1013.02 1012.99 1012.96 1012.98 1013.05 1013.16 1013.32 1013.49 1013.64 1013.77 1013.85 1013.89 1013.90 1013.90 1013.92 1013.97
1014.00 1014.04 1014.02 1013.96 1013.85 1013.71 1013.53 1013.31 1013.04 1012.69 1012.28 1011.79 1011.27 1010.75 1010.26 1009.88 1009.63 1009.55 1009.64 1009.90 1010.29 1010.76 1011.26 1011.73 1012.13 1012.45 1012.67 1012.81 1012.90 1012.97 1013.04 1013.13 1013.25 1013.39 1013.55 1013.70 1013.83 1013.92 1013.97 1014.00 1014.01 1014.02 1014.06 1014.13
1014.43 1014.49 1014.48 1014.40 1014.23 1013.98 1013.66 1013.26 1012.80 1012.27 1011.70 1011.12 1010.55 1010.02 1009.59 1009.29 1009.14 1009.15 1009.32 1009.62 1010.03 1010.51 1010.99 1011.46 1011.87 1012.22 1012.51 1012.73 1012.92 1013.08 1013.23 1013.39 1013.55 1013.70 1013.83 1013.94 1014.02 1014.06 1014.08 1014.09 1014.10 1014.13 1014.21 1014.32
1014.81 1014.88 1014.88 1014.78 1014.58 1014.28 1013.86 1013.35 1012.76 1012.10 1011.42 1010.75 1010.13 1009.59 1009.17 1008.90 1008.80 1008.85 1009.06 1009.38 1009.81 1010.28 1010.78 1011.27 1011.73 1012.14 1012.50 1012.82 1013.11 1013.36 1013.59 1013.79 1013.96 1014.09 1014.18 1014.23 1014.24 1014.23 1014.20 1014.18 1014.20 1014.26 1014.37 1014.55
1015.12 1015.18 1015.17 1015.07 1014.85 1014.52 1014.06 1013.48 1012.82 1012.09 1011.34 1010.61 1009.94 1009.38 1008.96 1008.69 1008.60 1008.67 1008.88 1009.22 1009.66 1010.15 1010.68 1011.21 1011.73 1012.22 1012.68 1013.10 1013.49 1013.82 1014.11 1014.34 1014.50 1014.60 1014.63 1014.60 1014.54 1014.45 1014.38 1014.34 1014.35 1014.43 1014.59 1014.82
1015.37 1015.38 1015.33 1015.21 1014.98 1014.64 1014.16 1013.57 1012.88 1012.12 1011.34 1010.58 1009.90 1009.32 1008.89 1008.62 1008.52 1008.60 1008.82 1009.17 1009.62 1010.14 1010.71 1011.30 1011.89 1012.48 1013.03 1013.55 1014.02 1014.43 1014.75 1014.99 1015.14 1015.19 1015.16 1015.06 1014.92 1014.78 1014.65 1014.58 1014.59 1014.70 1014.89 1015.18
1015.56 1015.48 1015.38 1015.21 1014.96 1014.61 1014.13 1013.54 1012.86 1012.11 1011.34 1010.59 1009.91 1009.33 1008.90 1008.64 1008.55 1008.63 1008.86 1009.23 1009.71 1010.27 1010.88 1011.54 1012.21 1012.87 1013.51 1014.11 1014.64 1015.10 1015.45 1015.70 1015.82 1015.84 1015.75 1015.60 1015.40 1015.21 1015.05 1014.96 1014.97 1015.09 1015.32 1015.64
1015.67 1015.49 1015.30 1015.08 1014.79 1014.42 1013.95 1013.38 1012.73 1012.01 1011.28 1010.56 1009.92 1009.38 1008.98 1008.74 1008.67 1008.78 1009.03 1009.42 1009.93 1010.53 1011.19 1011.90 1012.62 1013.34 1014.04 1014.69 1015.27 1015.75 1016.13 1016.37 1016.48 1016.48 1016.37 1016.18 1015.96 1015.74 1015.57 1015.48 1015.49 1015.63 1015.88 1016.24
1015.70 1015.40 1015.12 1014.82 1014.49 1014.10 1013.64 1013.10 1012.48 1011.82 1011.15 1010.50 1009.91 1009.43 1009.08 1008.90 1008.88 1009.02 1009.31 1009.74 1010.28 1010.91 1011.61 1012.34 1013.10 1013.84 1014.57 1015.23 1015.82 1016.32 1016.70 1016.94 1017.06 1017.06 1016.95 1016.78 1016.56 1016.36 1016.21 1016.13 1016.17 1016.32 1016.59 1016.97
1015.58 1015.18 1014.80 1014.44 1014.07 1013.67 1013.22 1012.71 1012.15 1011.55 1010.96 1010.39 1009.89 1009.49 1009.22 1009.11 1009.16 1009.36 1009.70 1010.17 1010.74 1011.40 1012.10 1012.84 1013.59 1014.33 1015.03 1015.68 1016.26 1016.74 1017.12 1017.37 1017.51 1017.54 1017.47 1017.34 1017.19 1017.04 1016.93 1016.90 1016.98 1017.16 1017.44 1017.83
1015.24 1014.77 1014.33 1013.93 1013.54 1013.14 1012.71 1012.25 1011.75 1011.24 1010.73 1010.26 1009.86 1009.56 1009.39 1009.37 1009.51 1009.78 1010.19 1010.70 1011.30 1011.96 1012.66 1013.38 1014.09 1014.78 1015.43 1016.03 1016.57 1017.02 1017.39 1017.65 1017.83 1017.91 1017.92 1017.87 1017.80 1017.74 1017.72 1017.76 1017.88 1018.10 1018.40 1018.79
Thickness
5790 5775 5766 5772 5777 5779 5777 5772 5768 5779 5797 5793 5788 5788 5794 5799 5799 5796 5794 5793 5792 5791 5791 5790 5788 5784 5780 5775 5772 5767 5763 5761 5757 5754 5750 5746 5744 5744 5743 5742 5741 5739 5739 5738
5770 5766 5778 5783 5782 5780 5776 5770 5769 5780 5795 5791 5783 5784 5793 5797 5798 5798 5795 5793 5792 5789 5788 5787 5786 5784 5780 5776 5773 5769 5765 5762 5760 5757 5754 5750 5747 5746 5745 5743 5742 5741 5740 5739
5765 5773 5786 5781 5777 5774 5773 5770 5772 5775 5784 5786 5781 5774 5784 5794 5798 5798 5798 5796 5794 5792 5787 5785 5784 5782 5781 5776 5774 5772 5767 5763 5761 5758 5753 5750 5746 5745 5743 5742 5742 5742 5742 5740
5766 5778 5781 5777 5775 5775 5765 5782 5781 5778 5767 5757 5769 5749 5772 5782 5787 5792 5794 5794 5793 5793 5790 5787 5784 5781 5780 5778 5775 5771 5767 5763 5760 5757 5753 5749 5746 5743 5744 5745 5744 5743 5742 5741
5762 5775 5776 5773 5778 5780 5776 5787 5782 5775 5765 5753 5757 5749 5758 5775 5777 5786 5794 5797 5796 5794 5791 5788 5785 5782 5781 5778 5774 5771 5767 5763 5761 5758 5754 5750 5747 5746 5746 5745 5744 5743 5742 5741
5767 5780 5783 5783 5789 5789 5785 5774 5764 5752 5746 5735 5749 5746 5751 5765 5778 5788 5795 5797 5797 5794 5792 5788 5785 5782 5779 5776 5773 5770 5765 5762 5761 5758 5754 5751 5748 5746 5744 5743 5742 5741 5741 5741
5757 5770 5784 5790 5780 5781 5775 5749 5726 5725 5717 5724 5745 5745 5751 5778 5789 5793 5795 5795 5796 5794 5790 5785 5781 5778 5775 5772 5771 5768 5764 5760 5758 5755 5753 5751 5749 5746 5744 5743 5742 5741 5740 5740
5736 5741 5771 5782 5778 5768 5764 5753 5724 5716 5713 5722 5739 5740 5762 5786 5793 5798 5797 5795 5793 5790 5787 5783 5779 5776 5774 5771 5768 5765 5762 5758 5756 5753 5751 5750 5749 5746 5745 5744 5742 5741 5741 5741
5731 5739 5772 5784 5787 5776 5756 5750 5751 5726 5722 5719 5728 5746 5768 5787 5788 5790 5791 5790 5787 5786 5784 5781 5778 5776 5772 5769 5766 5764 5760 5757 5754 5752 5750 5748 5747 5745 5743 5743 5742 5741 5741 5740
5743 5740 5761 5776 5780 5774 5768 5751 5734 5721 5708 5709 5726 5736 5747 5770 5777 5782 5783 5782 5782 5782 5780 5778 5775 5773 5770 5768 5765 5762 5759 5755 5752 5750 5749 5747 5745 5744 5742 5740 5739 5739 5739 5738
5748 5737 5747 5759 5761 5757 5753 5747 5733 5719 5720 5707 5710 5730 5769 5773 5778 5779 5780 5781 5780 5778 5777 5775 5773 5771 5768 5765 5762 5759 5756 5754 5750 5747 5745 5744 5743 5741 5739 5738 5737 5737 5737 5736
5742 5728 5724 5742 5763 5771 5765 5752 5738 5727 5719 5714 5714 5733 5779 5778 5780 5780 5778 5778 5778 5776 5774 5772 5770 5766 5763 5759 5756 5755 5753 5751 5748 5745 5742 5740 5739 5738 5736 5735 5734 5734 5734 5733
5738 5722 5712 5722 5738 5755 5756 5751 5746 5734 5717 5707 5713 5738 5774 5776 5776 5777 5775 5774 5773 5771 5769 5766 5763 5760 5758 5755 5752 5751 5749 5746 5744 5741 5738 5736 5734 5733 5732 5730 5730 5730 5729 5729
5745 5721 5716 5715 5726 5744 5750 5749 5743 5735 5718 5713 5725 5745 5761 5766 5769 5771 5771 5770 5769 5767 5765 5762 5758 5755 5753 5751 5749 5747 5745 5743 5741 5738 5734 5731 5729 5728 5726 5726 5725 5725 5724 5723
5738 5721 5727 5734 5745 5749 5752 5752 5745 5744 5739 5732 5740 5745 5761 5768 5770 5770 5769 5767 5765 5763 5761 5758 5755 5751 5749 5747 5746 5744 5742 5740 5737 5733 5729 5726 5725 5723 5721 5720 5719 5719 5718 5717
5723 5720 5724 5730 5740 5744 5745 5750 5748 5749 5747 5747 5750 5751 5767 5769 5769 5767 5766 5764 5762 5760 5758 5755 5751 5749 5746 5744 5743 5740 5738 5735 5732 5728 5724 5722 5719 5717 5715 5714 5713 5712 5711 5711
5710 5713 5708 5710 5728 5735 5727 5744 5747 5750 5753 5751 5748 5759 5764 5763 5764 5765 5763 5762 5760 5758 5755 5752 5749 5747 5744 5741 5739 5736 5733 5730 5726 5722 5719 5716 5713 5711 5709 5708 5706 5705 5704 5703
5706 5702 5697 5699 5713 5704 5728 5751 5754 5752 5754 5757 5760 5763 5764 5766 5765 5764 5764 5761 5758 5755 5751 5748 5745 5742 5740 5737 5734 5730 5726 5723 5719 5715 5712 5709 5707 5704 5702 5701 5699 5697 5696 5695
5706 5701 5690 5687 5693 5706 5729 5745 5748 5745 5747 5757 5757 5758 5759 5760 5757 5754 5759 5760 5756 5752 5748 5744 5741 5738 5734 5731 5728 5724 5720 5715 5711 5708 5705 5703 5700 5697 5695 5692 5690 5689 5688 5687
5695 5697 5689 5684 5689 5691 5721 5744 5752 5748 5738 5755 5756 5755 5754 5754 5743 5748 5755 5754 5750 5746 5741 5737 5734 5731 5727 5724 5721 5717 5712 5708 5704 5701 5698 5696 5693 5691 5688 5685 5683 5681 5680 5679
5681 5680 5681 5681 5687 5698 5726 5738 5744 5724 5732 5753 5753 5753 5752 5750 5751 5752 5751 5747 5743 5739 5734 5731 5727 5723 5719 5716 5713 5709 5704 5700 5697 5694 5691 5688 5685 5683 5680 5678 5675 5673 5671 5669
5671 5671 5671 5672 5679 5691 5723 5729 5728 5731 5743 5747 5749 5749 5747 5745 5745 5744 5742 5739 5735 5731 5726 5722 5718 5713 5710 5708 5706 5700 5696 5692 5689 5687 5683 5680 5677 5675 5672 5670 5667 5665 5663 5661
5664 5669 5671 5677 5685 5702 5711 5717 5726 5730 5734 5739 5741 5741 5740 5737 5735 5734 5731 5728 5725 5722 5719 5714 5710 5704 5701 5699 5698 5693 5688 5685 5682 5678 5674 5670 5667 5664 5662 5660 5657 5656 5654 5652
5661 5666 5668 5674 5687 5698 5706 5713 5720 5726 5730 5734 5736 5736 5734 5731 5727 5724 5721 5718 5716 5713 5710 5707 5702 5697 5692 5689 5687 5684 5681 5677 5674 5669 5664 5661 5657 5654 5651 5648 5647 5645 5643 5641
5654 5659 5661 5668 5681 5690 5700 5705 5711 5717 5723 5726 5727 5727 5725 5723 5718 5715 5712 5709 5707 5704 5701 5698 5693 5688 5684 5680 5677 5675 5672 5669 5665 5660 5656 5651 5648 5644 5640 5636 5633 5632 5630 5630
5646 5651 5655 5662 5675 5679 5687 5696 5703 5708 5712 5715 5715 5713 5712 5713 5709 5706 5702 5700 5697 5694 5690 5687 5683 5679 5675 5672 5669 5666 5663 5661 5657 5651 5646 5643 5639 5635 5631 5627 5622 5619 5618 5617